ORBCOMM FM117 [+] (41188 NORAD) Tracking and Keplerian Element Data

This shows tracking and keplerian element data for the satellite.

Feedback or suggestion? Click here.




ElementValue
Catalog41188
NameORBCOMM FM117 [+]
Epoch Orbit17074
Epoch Day52.72486662
Epoch Year2019
RAAN158.4512
Inclination47.0005
Eccentricity0.0002931
Argument of Perigee217.4404
Mean Anonmoly142.6276
Mean Motion14.54761269
Decay Rate-6.1E-07
L11 41188U 15081K 19052.72486662 -.00000061 00000-0 24310-4 0 9997
L22 41188 47.0005 158.4512 0002931 217.4404 142.6276 14.54761269170745

Live tracking and technical data element details for ORBCOMM FM117 [+] (NORAD 41188). ORBCOMM FM117 [+] can be tracked NOW for your location showing map with azimuth and elevation plus other details from your city location.

Track the satellite on the map from your city or location and see movement details for azimuth, elevation, latitude, longitude, range, height, and movement on the map or in text.







IsCatalogInMostPopularTable: catalog: 41188, numindb: 161
Update: records affected: 1



GetName: 41188 ORBCOMM FM117 [+]

Hit Count: updated at: Fri, 22 Feb 2019 22:08:38 GMT